Regional Weather Roundup
Issued by NWS Burlington, VT

Current Version | Previous Version | Text Only | Print | Product List | Glossary On
Versions: 1 2 3 4 5 6 7 8 9 10 11 12 13 14 15 16 17 18 19 20 21 22 23 24 25 26 27 28 29 30 31 32 33 34 35 36 37 38 39 40 41 42 43 44 45 46 47 48 49 50
000
ASUS41 KBTV 201410
RWRBTV
VERMONT REGIONAL WEATHER ROUNDUP
NATIONAL WEATHER SERVICE BURLINGTON VT
1000 AM EDT THU JUL 20 2017

NOTE: "FAIR" INDICATES FEW OR NO CLOUDS BELOW 12,000 FEET WITH NO
SIGNIFICANT WEATHER AND/OR OBSTRUCTIONS TO VISIBILITY.

* THESE REPORTS ARE NOT UNDER NWS QUALITY CONTROL AND/OR DO NOT
  REPORT WEATHER SUCH AS PRECIPITATION AND FOG.

VTZ001>019-201500-
_____VERMONT_____


CITY           SKY/WX    TMP DP  RH WIND       PRES   REMARKS
BURLINGTON     MOSUNNY   79  68  69 S5        29.94F
MONTPELIER     SUNNY     75  67  76 VRB3      30.01F
MORRISVILLE    PTSUNNY   77  64  64 CALM      29.98S
ST. JOHNSBURY*   N/A     76  66  71 MISG      29.95S
LYNDONVILLE*   FAIR      73  64  73 CALM      30.00S
MIDDLEBURY*    FAIR      79  67  67 S3        29.96S
RUTLAND*       PTSUNNY   78  68  71 N3        29.98R
SPRINGFIELD    SUNNY     80  67  64 VRB5      29.96F
HIGHGATE*      FAIR      78  69  72 CALM      29.94S
NEWPORT*       FAIR      76  65  69 W7        29.97S
BENNINGTON     MOSUNNY   79  68  69 VRB3      29.99S
SUTTON*          N/A     73 N/A N/A MISG        N/A

_____LAKE CHAMPLAIN_____


CITY           SKY/WX    TMP DP  RH WIND       PRES   REMARKS
BURTON ISLAND*   N/A     75  68  78 SW5         N/A
COLCHESTER RF*   N/A     72  70  94 S9          N/A
DIAMOND ISL*     N/A     73  68  83 SW2         N/A

$$

NYZ007-026>031-035-052-083-087-201500-
_____NORTHERN NEW YORK_____


CITY           SKY/WX    TMP DP  RH WIND       PRES   REMARKS
PLATTSBURGH    SUNNY     77  67  71 SE8       29.93F
SARANAC LAKE   SUNNY     74  67  78 SW10      29.99F
MASSENA        MOSUNNY   76  70  82 S7        29.95F
OGDENSBURG*    FAIR      78  69  73 SW10      29.95S
POTSDAM*       MOSUNNY   77  72  83 SW13      29.96S
WATERTOWN      MOSUNNY   75  68  78 W10       29.97F
FT DRUM        MOSUNNY   77  64  65 W8        29.97F
ALBANY         PTSUNNY   80  67  64 CALM      29.97S
GLENS FALLS    PTSUNNY   75  69  81 S5        29.96S

$$
NHZ002-005-011-201500-
_____NEW HAMPSHIRE_____


CITY           SKY/WX    TMP DP  RH WIND       PRES   REMARKS
LEBANON        SUNNY     78  68  71 CALM      29.95F
KEENE            N/A    N/A N/A N/A MISG        N/A
MT WASHINGTON  FOG       54  54 100 W28         N/A  VSB 0
PLYMOUTH       FAIR      78  66  66 W3        29.95S
WHITEFIELD     PTSUNNY   75  64  68 CALM      29.98S

$$

_____REGIONAL QUEBEC LOCATIONS_____


CITY           SKY/WX    TMP DP  RH WIND       PRES   REMARKS
MONTREAL       MOSUNNY   77  72  83 S6        29.92S
QUEBEC CITY    CLOUDY    70  66  88 SW6       29.92R FOG
SHERBROOKE     PTSUNNY   75  68  78 W7        29.94F

_____REGIONAL ONTARIO LOCATIONS_____


CITY           SKY/WX    TMP DP  RH WIND       PRES   REMARKS
OTTAWA         PTSUNNY   77  72  83 W3        29.94S

______KEY______
VSB  - VISIBILITY IN MILES
WCI  - WIND CHILL INDEX
HX   - HEAT INDEX
$$
NNNN



USA.gov is the U.S. government's official web portal to all federal, state and local government web resources and services.